Location: Unspecified
(0.0000°N, 0.0000°E)
Time: 07:13:19
(UTC+00:00)

Vanguard 1 Rocket - Pass Details

Date: 02 December 2022
Orbit: 651 x 4224 km, 34.3° (Epoch: 04 February)

Event Time Altitude Azimuth Distance (km) Brightness Sun altitude
Rises 20:06:21 0° 228° (SW) 8,456 13.4 -31.4°
Reaches altitude 10° 20:15:20 10° 214° (SW) 7,191 12.6 -33.4°
Maximum altitude 20:31:30 22° 170° (S) 5,140 11.3 -37.0°
Enters shadow 20:41:28 13° 128° (SE) 4,897 10.9 -39.2°
